Tracking 19564 objects as of 19-Mar-2019
HD Live streaming from Space Station
objects crossing your sky now

SL-16 DEB

Track SL-16 DEB now!
10-day predictions


NORAD ID: 39874
Int'l Code: 1993-016AY
Perigee: 722.6 km
Apogee: 883.3 km
Inclination: 70.9 °
Period: 100.8 minutes
Semi major axis: 7173 km
RCS: 0.0081 m2 (small)
Launch date: March 26, 1993
Source: Commonwealth of Independent States (former USSR) (CIS)
Launch site: TYURATAM MISSILE AND SPACE COMPLEX (TTMTR)

Note: This is SATELLITE DEBRIS
aabbcc
Your satellite tracking list
Your tracking list is empty




NASA's NSSDC Master Catalog

Two Line Element Set (TLE):
1 39874U 93016AY  19075.38522255  .00001663  00000-0  63517-3 0  9995
2 39874  70.9409 331.4214 0111962 154.2169 328.9894 14.28775562849245
Source of the keplerian elements: AFSPC